This demonstration page uses our WeatherBlox Daily Observations layout. Learn more.

Hourly Observations for August 9, 2019

Temp ( °F °C ) Dew Point ( °F °C ) Humidity (%) Winds ( mph kmh ) Pressure ( in mb ) Visibility ( mi km ) Precip ( " mm )
12:15 am 00:15 Clear 71 21.8 71 21.5 98 98 Calm 29.94 1014 10 16.09344 0 0
12:35 am 00:35 Mostly Cloudy 71 21.5 71 21.5 100 100 Calm 29.91 1013 10 16.09344 0 0
12:55 am 00:55 Partly Cloudy 71 21.5 71 21.5 100 100 ESE 6 9 29.91 1013 7 11.265408 0 0
1:15 am 01:15 Clear 71 21.7 71 21.6 99 99 SE 5 7 29.91 1013 7 11.265408 0 0
1:35 am 01:35 Clear 71 21.5 71 21.5 100 100 ESE 6 9 29.91 1013 7 11.265408 0 0
1:55 am 01:55 Clear 71 21.7 71 21.7 100 100 SE 5 7 29.91 1013 7 11.265408 0 0
2:15 am 02:15 Clear 71 21.5 71 21.5 100 100 SSE 5 7 29.91 1013 7 11.265408 0 0
2:35 am 02:35 Partly Cloudy 71 21.4 70 21.3 99 99 SSE 5 7 29.91 1013 7 11.265408 0 0
2:55 am 02:55 Mostly Cloudy 71 21.6 71 21.5 99 99 SSE 3 6 29.91 1013 10 16.09344 0 0
3:15 am 03:15 Mostly Cloudy 71 21.5 70 21.1 98 98 SSE 5 7 29.91 1013 10 16.09344 0 0
3:35 am 03:35 Clear 70 21.3 70 21.1 99 99 SSE 3 6 29.91 1013 10 16.09344 0 0
3:55 am 03:55 Clear 71 21.5 70 21 97 97 Calm 29.91 1013 10 16.09344 0 0
4:15 am 04:15 Clear 70 21.1 69 20.8 98 98 Calm 29.91 1013 10 16.09344 0 0
4:35 am 04:35 Clear 70 21.2 70 20.9 98 98 Calm 29.91 1013 10 16.09344 0 0
4:55 am 04:55 Clear 70 21 69 20.7 98 98 SSE 3 6 29.91 1013 10 16.09344 0 0
5:15 am 05:15 Mostly Cloudy 69 20.8 69 20.8 100 100 Calm 29.91 1013 10 16.09344 0 0
5:35 am 05:35 Cloudy 69 20.8 69 20.8 100 100 Calm 29.94 1014 10 16.09344 0 0
5:55 am 05:55 Cloudy 69 20.8 69 20.8 100 100 Calm 29.94 1014 7 11.265408 0 0
6:15 am 06:15 Mostly Cloudy 69 20.8 69 20.8 100 100 Calm 29.94 1014 10 16.09344 0 0
6:35 am 06:35 Cloudy 70 20.9 69 20.7 99 99 Calm 29.94 1014 10 16.09344 0 0
6:55 am 06:55 Mostly Cloudy 69 20.8 69 20.8 100 100 Calm 29.94 1014 7 11.265408 0 0
7:15 am 07:15 Partly Cloudy 70 20.9 70 20.9 100 100 Calm 29.94 1014 7 11.265408 0 0
7:35 am 07:35 Sunny 69 20.8 69 20.8 100 100 Calm 29.94 1014 7 11.265408 0 0
7:55 am 07:55 Sunny 70 20.9 70 20.9 100 100 Calm 29.94 1014 7 11.265408 0 0
8:15 am 08:15 Sunny 71 21.5 70 21.2 98 98 SE 5 7 29.94 1014 10 16.09344 0 0
8:35 am 08:35 Partly Cloudy 72 22.1 71 21.5 96 96 SSE 5 7 29.94 1014 10 16.09344 0 0
8:55 am 08:55 Partly Cloudy 73 23 71 21.4 91 91 S 6 9 29.94 1014 10 16.09344 0 0
9:15 am 09:15 Sunny 74 23.4 70 21.3 88 88 S 6 9 29.91 1013 10 16.09344 0 0
9:35 am 09:35 Partly Cloudy 76 24.4 70 21 81 81 S 7 11 29.91 1013 10 16.09344 0 0
9:55 am 09:55 Sunny 77 25 69 20.4 76 76 S 9 15 29.91 1013 10 16.09344 0 0
10:15 am 10:15 Partly Cloudy 77 25 69 20.4 76 76 S 9 15 29.91 1013 10 16.09344 0 0
10:35 am 10:35 Partly Cloudy 78 25.6 68 20.2 72 72 S 12 19 29.91 1013 10 16.09344 0 0
10:55 am 10:55 Sunny 78 25.6 68 20.2 72 72 S 8 13 29.91 1013 10 16.09344 0 0
11:15 am 11:15 Sunny 79 26.1 67 19.7 68 68 S 10 17 29.91 1013 10 16.09344 0 0
11:35 am 11:35 Sunny 80 26.4 68 19.8 67 67 SSE 13 20 29.91 1013 10 16.09344 0 0
11:55 am 11:55 Sunny 80 26.7 69 20.3 68 68 SSE 10 17 29.91 1013 10 16.09344 0 0
12:15 pm 12:15 Sunny 80 26.6 69 20.3 68 68 SSE 10 17 29.91 1013 10 16.09344 0 0
12:35 pm 12:35 Sunny 81 27.1 69 20.6 68 68 SSE 12 19 29.85 1011 10 16.09344 0 0
12:55 pm 12:55 Sunny 82 27.5 68 20 64 64 SSE 13 20 29.85 1011 10 16.09344 0 0
1:15 pm 13:15 Sunny 82 27.8 67 19.5 61 61 SSE 13 20 29.85 1011 10 16.09344 0 0
1:35 pm 13:35 Sunny 83 28.1 65 18.3 55 55 SSE 13 20 29.85 1011 10 16.09344 0 0
1:55 pm 13:55 Sunny 83 28.3 65 18.4 55 55 SE 10 17 29.85 1011 10 16.09344 0 0
2:15 pm 14:15 Sunny 84 28.8 66 18.9 55 55 SSE 10 17 29.85 1011 10 16.09344 0 0
2:35 pm 14:35 Sunny 83 28.6 66 18.9 56 56 SSE 10 17 29.85 1011 10 16.09344 0 0
2:55 pm 14:55 Partly Cloudy 84 28.8 66 19.1 56 56 SSE 7 11 29.85 1011 10 16.09344 0 0
3:15 pm 15:15 Sunny 84 29.1 67 19.2 55 55 S 13 20 29.83 1010 10 16.09344 0 0
3:35 pm 15:35 Partly Cloudy 85 29.3 67 19.5 56 56 S 12 19 29.83 1010 10 16.09344 0 0
3:55 pm 15:55 Sunny 85 29.5 66 18.9 53 53 S 12 19 29.83 1010 10 16.09344 0 0
4:15 pm 16:15 Partly Cloudy 85 29.3 67 19.6 56 56 SE 12 19 29.8 1009 10 16.09344 0 0
4:35 pm 16:35 Mostly Cloudy 85 29.6 68 20 56 56 SSE 10 17 29.8 1009 10 16.09344 0 0
4:55 pm 16:55 Mostly Cloudy 86 29.8 68 19.9 55 55 SSE 14 22 29.8 1009 10 16.09344 0 0
5:15 pm 17:15 Mostly Cloudy 86 30 68 20.1 55 55 SSE 9 15 29.77 1008 10 16.09344 0 0
5:35 pm 17:35 Partly Cloudy 85 29.7 69 20.3 57 57 SSE 10 17 29.8 1009 10 16.09344 0 0
5:55 pm 17:55 Partly Cloudy 85 29.5 67 19.6 55 55 S 10 17 29.77 1008 10 16.09344 0 0
6:15 pm 18:15 Partly Cloudy 85 29.3 68 19.8 57 57 S 10 17 29.77 1008 10 16.09344 0 0
6:35 pm 18:35 Mostly Cloudy 83 28.6 68 20 60 60 S 9 15 29.77 1008 10 16.09344 0 0
6:55 pm 18:55 Cloudy 83 28.3 68 20.2 62 62 S 8 13 29.77 1008 10 16.09344 0 0
7:15 pm 19:15 Cloudy 83 28.5 69 20.4 62 62 SSE 7 11 29.77 1008 10 16.09344 0 0
7:35 pm 19:35 Mostly Cloudy 82 28 69 20.3 63 63 S 8 13 29.77 1008 10 16.09344 0 0
7:55 pm 19:55 Partly Cloudy 81 27.2 69 20.8 68 68 SSE 6 9 29.77 1008 10 16.09344 0 0
8:15 pm 20:15 Sunny 79 26.1 70 21 74 74 SSE 5 7 29.77 1008 10 16.09344 0 0
8:35 pm 20:35 Sunny 77 24.9 69 20.7 78 78 SSE 6 9 29.8 1009 10 16.09344 0 0
8:55 pm 20:55 Clear 75 24 70 21.1 84 84 SE 6 9 29.8 1009 10 16.09344 0 0
9:15 pm 21:15 Clear 75 23.8 70 20.9 84 84 SE 6 9 29.8 1009 10 16.09344 0 0
9:35 pm 21:35 Clear 74 23.2 70 21 87 87 SE 7 11 29.83 1010 10 16.09344 0 0
9:55 pm 21:55 Clear 74 23.3 69 20.7 85 85 SE 8 13 29.83 1010 10 16.09344 0 0
10:15 pm 22:15 Clear 74 23.2 69 20.7 86 86 SE 8 13 29.83 1010 10 16.09344 0 0
10:35 pm 22:35 Clear 73 22.9 69 20.8 88 88 SSE 7 11 29.83 1010 10 16.09344 0 0
10:55 pm 22:55 Clear 73 22.6 70 20.9 90 90 SSE 8 13 29.83 1010 10 16.09344 0 0
11:15 pm 23:15 Clear 72 22.3 69 20.8 91 91 SSE 6 9 29.85 1011 10 16.09344 0 0
11:35 pm 23:35 Clear 72 22.1 70 21 94 94 SSE 8 13 29.85 1011 10 16.09344 0 0
11:55 pm 23:55 Clear 71 21.8 69 20.8 94 94 SSE 7 11 29.85 1011 10 16.09344 0 0

Powered by AerisWeather